Location: Darmstadt
(49.8706°N, 8.6494°E)
Time: 06:44:55
(UTC+01:00)

SL-08 ROCKET BODY - Pass Details

Date: 31 October 2020
Orbit: 897 x 962 km, 82.9° (Epoch: 03 December)

Event Time Altitude Azimuth Distance (km) Brightness Sun altitude
Rises 18:13:56 0° 351° (N) 3,621 7.5 -11.8°
Reaches altitude 10° 18:16:26 10° 353° (N) 2,680 6.8 -12.2°
Maximum altitude 18:22:34 75° 79° (E) 994 4.4 -13.1°
Drops below altitude 10° 18:28:44 10° 165° (SSE) 2,690 6.7 -14.1°
Sets 18:31:15 0° 167° (SSE) 3,634 7.4 -14.5°
